Showing default

NOAA 6, 11416

Orbit data source: Space-Track

NOAA 6, 11416 is a payload satellite owned by NOAA (US) in SSO that was launched on Wed, 27 Jun 1979 UTC via an ATLAS F launch vehicle from the Air Force Western Test Range (AFWTR). Payload-class satellites include a variety of spacecraft equipped with specific instruments for various scientific and technological missions. These include communications satellites like Starlink; space stations such as the ISS; scientific satellites like the Hubble; Earth observation satellites from companies like Planet Labs, Umbra, and HawkEye 360; GPS; miniature CubeSats for education and research; and military/defense satellites.

Loading next visibility...
Identifier
11416, 1979-057A
Orbit
SSO
Country
Flag of USUS
Related business
Manufacturer
RCA/East Windsor
Mission
Non-operational spacecraft
Bus & Motor
TIROS N, STAR 37S
Mass
1,418 kg wet, 684 kg dry
Launch date (UTC)
1979-06-27 (47 years ago)
Launch vehicle
ATLAS F
Launch site
Air Force Western Test Range (AFWTR)
Object type
Payload
Rocket body
Debris
Shape & HBR
Unknown
Radar Cross Section
Large (>1 m²)

Expand to show TLE details & history
Last TLE update: 2 days ago

TLE from 2 days ago
0 NOAA 6
1 11416U 79057A   26171.36455103  .00000147  00000-0  66362-4 0  9994
2 11416  98.5628 200.8271 0008717 245.4740 114.5537 14.35496557451412
Epoch: 2026-06-20T08:44Z
TLE epoch observation values (Epoch: 2026-06-20T08:44:57.208Z)
Latitude
-0°
Longitude
161.0085°
Altitude
778.953 km
Speed
7.463 km/s
True Right ascension
13h 23m 18s
True Declination
0° 00' 00"
Sunlit
Object was in daylight at epoch
Visualization orbit readout
Latitude
Unknown
Longitude
Unknown
Altitude
Unknown
Speed
Unknown
Apparent Right ascension
Unknown
Apparent Declination
Unknown
Sunlit
N/A
Visualization observer readout
Local Sidereal Time
23:20:29
Azimuth
Unknown
Elevation
Unknown
Doppler factor
Unknown
Orbital elements
Apogee altitude
776.779 km
Perigee altitude
764.316 km
Semi-major axis
7,148.685 km
Eccentricity
0.00087
Inclination
98.5628°
RAAN
200.8271°
Arg. of periapsis
245.474°
True anomaly
114.64452°
Mean anomaly
114.5537°
Eccentric anomaly
114.59911°
Mean motion
3.59091 °/min
Orbital period
100.25 mins
BSTAR
0.000066362
Loading maneuver chart data...
Computing Atmospheric mass density...
Loading historical data...
Loading historical data...
Loading historical data...
Loading historical data...
Loading historical data...
Loading historical data...
Loading historical data...

Documentation

Showing up to 5 results
|